Powrót do katalogu

THORAD AGENA D DEB *

AktywnySSO
NORAD 6159·DEBRIS·🇺🇸 United States

Wystrzelony Apr 8, 1970 z Vandenberg Space Force Base

Loading…

Następne Przeloty (najbliższe 24 godziny)

TLE

ŚwieżeSource: Space-Track

Epoka: Sep 13, 2026, 08:54 UTC

1 06159U 70025MY  26256.37116944  .00000562  00000-0  22818-2 0  9997
2 06159 101.1871  41.9434 0054581  25.2434   2.7185 12.90968443667143

Śledź THORAD AGENA D DEB * w czasie rzeczywistym z AllMySat

Download on the App Store